Temperature
10 11 11 12 13 15 16 16 16 17 18 17 18 18 20 20 19 19 20 20 20 19 19 19 18 18 18 17 17 17 17 16 15 15 14 14 13 13 13 12 12 12 11 11
10 10 13 14 14 14 14 15 16 17 17 17 17 18 19 20 20 19 20 20 20 20 19 19 18 18 18 18 18 17 17 16 16 16 16 15 14 13 13 13 12 12 11 11
10 12 13 13 12 12 13 14 15 16 16 16 16 17 18 19 19 19 19 19 20 20 20 19 18 18 18 18 18 18 18 17 17 16 15 14 12 12 12 12 12 12 11 11
10 11 12 12 12 12 12 14 15 15 15 15 16 16 19 19 19 19 18 19 19 19 19 19 19 18 19 19 19 18 18 17 17 16 15 14 13 13 14 14 13 13 12 11
9 11 11 11 12 13 13 14 14 14 15 15 15 15 18 19 18 19 20 19 19 18 18 19 19 18 19 19 19 19 18 17 16 16 15 15 14 14 14 13 13 12 12 11
10 10 11 11 13 13 13 13 12 13 13 13 15 15 17 19 19 20 20 19 18 18 18 18 18 18 19 19 19 19 18 17 16 16 15 15 15 14 13 13 13 12 12 11
9 10 10 11 11 11 11 11 10 11 11 13 16 15 17 19 19 20 20 19 18 17 17 17 18 18 18 18 19 18 18 17 17 16 15 15 15 14 13 13 13 12 12 12
8 9 10 10 11 10 11 11 12 12 13 15 14 15 18 19 18 18 18 18 17 17 17 17 18 18 18 18 18 18 18 17 17 16 16 15 14 13 13 12 12 12 12 12
7 9 10 10 11 11 11 11 12 13 14 15 15 16 17 17 17 16 17 17 16 16 16 17 17 18 18 18 18 18 18 17 17 16 15 15 14 13 12 12 12 12 12 12
7 7 9 10 10 11 12 11 11 11 12 14 15 16 17 18 17 17 17 17 16 16 16 16 17 17 17 17 18 18 17 17 17 16 15 14 14 13 12 12 11 11 11 11
7 7 8 9 9 10 10 10 10 11 13 14 15 17 18 19 19 19 18 18 17 16 16 16 17 17 17 17 17 17 17 16 16 15 14 14 13 12 12 11 11 11 11 11
6 7 7 8 10 10 10 11 10 11 12 14 15 17 18 18 18 18 18 17 16 16 16 16 16 16 16 16 16 16 16 16 15 15 14 13 13 12 11 11 11 11 11 10
6 6 6 8 8 8 8 9 10 11 13 13 15 17 17 16 16 16 16 16 15 15 15 15 16 16 16 16 16 16 15 15 15 14 14 13 12 12 11 11 11 10 10 10
6 5 6 7 8 7 7 8 9 10 11 13 15 17 17 17 16 16 15 15 15 14 14 15 15 16 16 16 16 15 15 15 14 14 13 13 12 12 11 11 10 10 10 10
5 5 6 7 8 8 8 8 9 9 11 13 15 16 17 17 17 17 15 14 14 13 14 14 15 15 15 15 15 15 15 14 14 13 13 13 12 11 11 11 10 10 10 10
4 4 6 6 8 8 8 9 9 10 11 12 14 15 17 17 16 15 15 14 13 14 14 14 15 15 15 15 15 15 15 14 14 13 13 12 12 11 11 10 10 10 9 9
3 3 4 6 7 7 8 10 10 11 12 13 13 15 16 15 15 15 15 14 14 14 14 14 15 15 16 16 16 15 15 14 14 13 12 12 11 11 11 10 10 9 9 9
3 3 4 5 6 6 10 11 11 11 12 12 13 13 14 15 15 15 15 15 15 15 15 15 15 15 16 16 16 15 15 14 14 13 12 12 11 11 10 10 9 9 9 8
4 3 4 5 6 7 9 10 10 10 10 11 11 12 13 13 14 15 14 14 15 15 16 16 16 16 16 16 15 15 14 14 13 13 12 12 11 11 10 10 9 9 8 8
4 3 3 4 5 7 10 10 10 10 10 11 11 11 12 12 13 15 13 14 14 14 15 15 16 16 16 15 15 15 14 14 14 13 12 12 11 11 10 9 9 8 8 7
3 3 3 4 5 8 9 9 9 9 10 10 10 10 11 11 12 13 13 13 13 14 15 15 15 15 16 15 15 15 14 14 14 13 12 11 11 10 9 9 8 8 7 7
4 4 4 5 5 7 8 8 9 9 9 9 9 9 10 10 10 11 12 12 13 13 14 15 15 15 15 15 15 15 14 14 13 12 12 11 10 10 9 8 8 7 7 6
5 5 6 6 7 9 8 8 8 8 8 8 9 9 9 9 10 10 10 11 12 13 13 14 14 14 15 15 15 15 14 14 13 12 11 10 10 9 8 8 8 7 6 6
4 5 5 5 7 8 7 7 7 7 7 7 8 8 9 9 9 9 10 10 10 11 12 13 13 14 14 14 14 14 14 13 12 11 11 10 9 8 8 7 7 7 6 6
4 4 4 5 6 7 7 7 7 7 7 7 7 7 8 8 8 9 9 10 10 11 11 12 13 13 14 14 13 13 13 13 12 11 10 9 9 8 7 7 6 6 6 5
4 4 4 5 6 6 7 7 6 6 6 6 6 7 7 8 8 8 9 10 10 10 11 11 12 13 13 13 13 13 12 12 12 11 10 9 8 8 7 7 6 5 5 4
Wind_Speed
11 15 21 24 27 23 21 22 22 20 14 16 22 24 22 19 17 20 20 20 20 20 19 18 19 19 19 20 21 22 22 21 18 16 15 15 14 13 12 13 16 17 17 17
13 23 26 22 22 21 21 22 22 15 13 14 18 23 22 22 22 21 22 22 22 20 18 16 17 18 20 21 22 23 23 23 22 18 17 15 14 12 12 12 14 18 18 17
22 18 19 21 22 23 23 23 22 16 11 12 12 19 23 22 22 22 22 23 23 22 21 19 18 19 19 21 23 22 24 24 24 21 15 12 11 10 11 13 13 16 18 18
19 18 18 22 24 23 22 20 18 16 14 12 14 14 20 20 21 22 23 23 23 22 21 19 18 19 20 21 21 22 23 24 24 22 19 20 16 15 17 14 14 15 18 18
14 15 19 24 25 23 16 14 15 16 16 15 16 14 14 14 20 23 23 23 23 21 20 19 18 18 18 18 18 20 22 23 23 23 22 21 19 16 14 14 15 15 15 16
15 13 16 18 19 17 11 9 8 10 11 17 23 18 15 15 20 19 19 20 20 19 18 17 15 14 14 14 16 17 20 22 22 23 23 23 22 19 17 17 15 14 12 13
11 13 12 14 15 13 13 12 8 10 12 15 17 17 16 14 15 17 16 16 16 16 16 16 15 15 14 15 16 17 20 21 22 23 23 23 22 21 19 17 16 15 12 12
10 11 12 12 16 15 19 19 13 10 13 12 12 16 14 13 13 14 14 13 13 14 14 14 14 14 14 15 16 17 19 20 21 22 22 21 21 16 14 16 14 15 13 13
7 10 10 12 12 15 17 18 13 8 8 10 11 11 12 10 13 15 15 14 15 14 14 13 12 12 13 14 15 17 18 19 20 21 20 19 19 17 16 16 15 13 12 11
4 7 9 9 8 13 15 13 9 10 10 12 12 14 11 14 18 17 17 17 16 14 13 12 11 11 11 12 13 14 16 17 18 18 17 15 17 17 15 14 15 14 13 12
4 5 6 8 11 14 14 15 10 10 9 10 11 11 10 15 15 17 18 16 15 14 13 11 10 10 10 10 12 13 14 14 15 16 16 16 15 15 15 13 14 13 12 12
5 4 7 11 10 10 13 15 15 12 10 10 11 8 4 10 10 11 12 11 11 11 10 10 10 10 11 11 12 12 13 13 14 14 15 15 14 14 14 13 13 12 12 11
3 4 4 4 4 5 7 11 15 14 11 12 14 10 3 4 6 7 8 9 9 10 10 9 9 10 11 11 11 12 12 13 13 13 14 14 14 14 14 13 12 11 11 11
5 5 8 9 6 7 11 14 15 14 13 16 20 16 8 6 7 6 7 8 9 10 10 10 10 10 11 11 11 12 12 12 13 13 13 14 14 13 13 12 11 11 11 10
4 7 10 13 11 12 16 18 18 20 20 19 21 20 15 9 7 6 6 7 9 10 10 11 11 11 11 11 11 12 12 12 13 13 13 13 12 12 11 11 11 10 10 9
4 6 8 11 12 12 16 19 21 23 24 23 21 21 14 10 6 5 6 8 10 11 11 11 11 12 12 13 13 13 13 13 13 13 13 12 12 12 11 11 11 10 10 9
5 4 4 7 9 9 14 18 21 22 24 24 24 20 11 12 13 10 8 9 10 10 11 12 12 12 12 13 14 14 14 14 14 13 13 13 12 12 11 11 11 11 10 10
9 7 5 5 6 11 10 9 14 18 20 20 20 13 12 15 15 13 10 9 8 8 9 10 11 11 11 12 12 13 14 14 14 14 13 13 13 13 12 12 11 11 10 9
16 10 6 5 7 11 9 8 13 16 16 14 16 15 13 11 12 14 11 10 10 9 9 10 10 10 11 12 14 14 14 14 14 14 14 14 14 14 13 13 12 11 10 9
15 14 8 7 7 9 6 4 7 11 14 12 13 14 12 10 14 15 10 10 12 10 9 8 8 9 11 13 15 16 16 16 16 15 14 14 14 14 14 13 12 10 10 9
9 10 14 13 10 9 6 4 6 10 7 6 11 13 13 15 17 13 10 10 11 11 10 8 9 10 11 13 16 16 16 16 15 14 14 14 14 14 14 12 11 11 10 10
9 8 11 11 11 11 3 3 7 4 4 4 6 10 13 16 17 14 11 10 9 9 9 9 9 10 11 14 16 16 15 14 15 15 15 14 14 12 11 13 12 11 11 11
9 9 7 9 10 6 3 4 6 6 7 7 8 9 10 12 14 13 11 11 10 9 9 9 10 10 11 13 15 17 15 16 17 16 16 15 14 12 12 13 13 11 10 8
8 9 10 10 13 14 11 11 10 9 10 10 11 11 10 11 12 12 10 10 10 9 9 9 10 11 11 12 13 14 17 18 18 18 16 15 14 13 11 9 9 9 9 8
11 8 11 15 16 16 15 13 13 13 13 12 12 12 11 11 12 11 10 9 9 8 8 10 12 12 13 13 13 15 18 19 19 18 16 15 13 13 11 9 7 7 7 7
16 16 16 15 14 12 16 16 16 16 16 14 13 13 12 11 11 10 9 8 8 8 9 10 11 12 13 14 15 16 18 19 20 17 15 13 12 11 11 11 9 11 9 11
Wind_Direction
211 215 215 211 213 223 223 223 224 225 213 213 227 235 236 231 227 232 232 230 227 227 227 221 216 210 204 201 199 196 195 195 192 191 193 195 198 198 200 203 203 200 200 199
216 224 223 220 219 222 225 226 227 228 219 222 236 242 241 238 234 234 235 233 231 230 225 218 213 208 204 202 200 199 198 195 194 195 196 198 197 199 200 200 205 204 204 201
219 225 219 216 216 217 222 222 221 221 213 225 244 250 242 238 235 235 236 236 235 231 228 220 212 207 204 203 202 200 199 197 196 195 193 191 191 193 197 201 203 205 205 204
230 231 221 218 218 216 222 221 222 219 218 227 222 250 241 232 230 230 231 231 232 229 229 226 218 210 206 205 202 202 200 198 196 193 192 189 192 197 201 200 200 202 204 205
226 221 217 219 218 216 223 213 217 224 229 238 229 243 250 226 231 229 228 227 228 227 225 224 220 214 209 204 200 200 199 198 195 194 195 195 200 203 199 197 198 199 202 205
240 235 223 222 220 217 209 195 206 223 228 237 229 230 251 226 228 228 225 224 223 222 221 221 217 210 205 199 197 196 197 197 195 194 196 199 201 200 195 194 195 196 198 201
236 237 225 212 206 205 195 184 190 200 211 231 218 223 242 234 226 226 223 220 217 215 213 211 208 203 198 193 192 192 193 195 194 195 198 201 203 201 199 195 196 194 196 199
214 227 210 202 201 200 202 198 201 202 212 219 208 226 237 232 228 229 230 229 220 214 210 208 204 200 196 191 189 189 191 192 192 194 197 200 202 201 202 200 197 197 199 201
220 225 209 212 209 200 199 210 223 241 227 221 215 231 244 235 229 226 226 225 219 213 207 204 200 198 195 190 189 188 187 189 190 193 195 198 198 199 199 198 198 198 199 197
234 244 221 206 202 211 208 196 195 208 211 222 223 227 227 210 215 216 217 218 215 209 204 199 197 195 193 189 185 185 185 186 187 189 191 193 195 197 196 194 196 196 196 193
257 240 215 200 204 196 193 198 199 201 226 226 229 233 220 219 213 212 213 213 208 204 198 194 189 185 180 176 176 177 180 180 182 185 187 189 191 192 192 193 195 195 194 190
234 242 232 224 226 219 207 199 197 202 206 224 235 239 191 218 218 215 212 206 202 196 189 182 176 172 171 172 172 173 176 177 178 179 181 183 184 185 188 190 191 190 189 185
243 232 239 219 200 194 211 209 210 222 221 217 224 231 187 211 220 216 209 197 187 180 174 170 169 172 172 170 170 170 172 172 172 173 175 176 178 180 184 184 183 183 182 178
277 235 231 234 239 214 229 232 226 221 220 222 225 232 230 226 223 214 208 194 182 175 170 170 171 171 170 168 168 168 167 167 166 168 171 174 176 178 178 177 176 176 176 175
288 251 248 258 265 242 236 233 228 227 226 226 229 232 233 237 236 220 194 182 179 176 175 175 174 171 169 167 167 166 165 165 165 166 168 170 169 168 166 166 166 166 167 168
283 265 264 263 255 250 249 236 227 228 230 234 240 240 234 235 234 218 190 179 183 183 183 181 177 175 174 172 170 168 166 166 165 166 165 162 160 159 160 160 158 158 158 158
250 257 262 262 257 257 245 229 220 221 226 228 233 237 229 230 232 225 206 194 194 190 188 189 189 186 181 177 173 171 167 163 164 164 162 161 159 157 157 154 155 156 157 154
232 241 246 261 252 234 236 221 223 228 230 233 236 238 227 231 235 232 220 211 208 199 196 196 195 189 182 173 168 163 161 163 164 163 163 162 160 158 156 156 156 156 155 153
219 219 231 234 241 257 257 234 219 222 230 233 236 237 240 244 244 237 233 234 227 215 208 202 197 186 176 171 165 160 162 163 165 167 166 165 162 159 157 158 156 153 149 146
209 212 226 230 237 240 249 236 230 220 236 239 238 239 239 233 232 236 245 247 243 236 220 202 187 178 173 171 164 163 166 168 171 170 166 163 162 160 159 155 150 146 143 139
194 205 220 231 241 259 278 270 177 199 236 257 237 240 236 228 235 252 251 244 242 235 221 197 181 181 177 169 166 169 170 174 168 159 156 156 157 157 153 148 145 142 137 134
213 209 214 220 230 244 278 187 191 247 305 295 254 248 243 243 249 255 250 244 239 232 214 195 186 182 173 170 170 171 173 163 153 151 150 151 151 146 146 143 141 141 139 136
231 229 229 225 237 268 260 245 275 299 290 295 291 278 264 255 254 256 253 248 241 231 212 195 186 176 172 175 175 170 163 153 150 148 147 145 143 143 146 145 143 142 143 142
247 248 247 252 255 265 272 278 282 289 296 300 299 294 280 266 265 262 253 246 239 230 213 191 180 176 174 175 175 164 154 153 150 147 145 143 142 140 139 138 143 146 149 148
245 243 250 255 264 275 269 269 281 294 300 302 304 296 282 272 270 264 253 244 236 223 204 189 185 180 173 167 163 156 154 152 148 145 143 142 141 138 135 130 129 138 139 149
238 238 243 251 259 267 273 277 285 289 291 292 295 295 290 275 270 266 255 244 230 211 195 187 182 172 164 160 157 158 157 154 148 146 146 144 142 139 135 128 110 84 103 108
Height
1445 1446 1438 1436 1439 1438 1437 1438 1439 1439 1442 1447 1446 1444 1443 1446 1449 1450 1450 1452 1455 1457 1461 1464 1467 1470 1473 1477 1480 1484 1488 1492 1496 1500 1503 1506 1510 1513 1517 1520 1523 1526 1529 1531
1440 1435 1429 1433 1436 1438 1438 1438 1437 1439 1441 1444 1442 1439 1437 1439 1440 1442 1444 1445 1448 1451 1454 1456 1459 1462 1466 1469 1473 1477 1481 1485 1489 1493 1497 1501 1505 1509 1512 1516 1519 1522 1525 1527
1428 1424 1427 1431 1434 1436 1435 1435 1435 1438 1440 1442 1443 1437 1431 1430 1433 1435 1437 1438 1440 1443 1446 1449 1452 1455 1458 1462 1465 1469 1474 1478 1482 1487 1492 1496 1501 1504 1507 1510 1513 1517 1520 1523
1424 1422 1425 1425 1427 1430 1431 1431 1433 1436 1440 1438 1440 1433 1419 1419 1423 1425 1427 1429 1431 1435 1438 1441 1444 1447 1450 1454 1458 1463 1467 1471 1475 1480 1484 1488 1491 1495 1499 1504 1508 1512 1515 1518
1418 1417 1420 1419 1419 1424 1425 1428 1432 1435 1436 1436 1434 1433 1414 1412 1414 1413 1416 1419 1422 1426 1429 1432 1435 1439 1442 1447 1451 1455 1460 1464 1468 1473 1477 1481 1486 1491 1495 1499 1503 1507 1510 1513
1414 1415 1415 1414 1417 1421 1424 1429 1434 1435 1437 1438 1425 1427 1411 1403 1402 1403 1406 1410 1414 1418 1421 1424 1428 1431 1435 1439 1443 1448 1452 1456 1461 1466 1470 1475 1480 1485 1489 1493 1497 1501 1504 1508
1411 1409 1409 1410 1415 1420 1422 1429 1436 1435 1434 1422 1413 1416 1402 1392 1394 1397 1400 1403 1407 1410 1414 1417 1420 1424 1427 1431 1436 1440 1445 1450 1454 1459 1464 1468 1474 1479 1483 1487 1491 1495 1498 1502
1410 1406 1405 1405 1406 1411 1414 1418 1417 1416 1412 1407 1411 1407 1391 1388 1391 1394 1397 1399 1401 1404 1407 1410 1413 1417 1421 1425 1429 1434 1438 1443 1448 1453 1458 1463 1468 1473 1477 1482 1486 1490 1493 1497
1407 1401 1399 1401 1402 1405 1409 1411 1409 1409 1401 1402 1400 1393 1388 1387 1388 1390 1392 1394 1395 1398 1401 1404 1408 1412 1415 1419 1423 1428 1433 1438 1442 1447 1452 1457 1462 1467 1472 1476 1481 1485 1488 1492
1408 1405 1397 1398 1401 1400 1400 1404 1412 1415 1408 1400 1391 1388 1380 1378 1379 1382 1385 1387 1389 1393 1396 1399 1403 1406 1410 1414 1419 1423 1428 1432 1437 1442 1447 1452 1457 1462 1467 1472 1476 1480 1483 1487
1408 1405 1399 1397 1395 1394 1399 1403 1406 1405 1398 1389 1385 1376 1364 1366 1369 1373 1376 1380 1384 1388 1391 1395 1398 1402 1406 1410 1414 1419 1423 1428 1433 1438 1443 1448 1453 1457 1462 1467 1471 1475 1479 1482
1407 1405 1399 1393 1390 1392 1392 1393 1398 1398 1395 1388 1379 1370 1361 1363 1365 1369 1372 1376 1380 1384 1388 1391 1395 1398 1402 1406 1411 1415 1420 1424 1429 1434 1439 1444 1448 1453 1457 1462 1466 1471 1474 1478
1407 1405 1399 1392 1395 1396 1395 1394 1394 1392 1387 1383 1380 1369 1361 1364 1366 1368 1371 1374 1377 1381 1384 1388 1392 1395 1399 1403 1408 1412 1416 1421 1426 1430 1435 1440 1444 1448 1453 1458 1462 1466 1470 1474
1406 1403 1399 1392 1388 1393 1395 1394 1393 1393 1386 1378 1372 1364 1362 1364 1365 1367 1370 1372 1375 1378 1382 1385 1389 1393 1397 1401 1405 1409 1414 1418 1422 1427 1431 1436 1440 1445 1450 1454 1458 1462 1466 1470
1406 1400 1394 1389 1387 1387 1386 1386 1388 1387 1379 1373 1364 1363 1362 1362 1363 1365 1368 1371 1373 1377 1380 1383 1386 1390 1394 1399 1403 1407 1411 1415 1420 1424 1428 1433 1438 1442 1447 1451 1455 1459 1463 1466
1407 1401 1394 1388 1383 1382 1380 1376 1378 1378 1375 1369 1365 1361 1359 1363 1365 1366 1368 1369 1371 1374 1377 1381 1384 1388 1392 1396 1400 1404 1408 1413 1417 1421 1426 1430 1435 1439 1444 1448 1452 1456 1459 1463
1405 1403 1397 1387 1381 1381 1375 1364 1364 1365 1362 1361 1360 1357 1360 1363 1364 1364 1366 1368 1369 1372 1375 1378 1382 1385 1389 1393 1397 1402 1406 1410 1414 1419 1423 1428 1432 1436 1441 1445 1449 1453 1456 1460
1402 1401 1397 1389 1384 1380 1358 1354 1356 1357 1356 1357 1355 1358 1359 1360 1360 1362 1364 1365 1367 1369 1372 1375 1379 1383 1387 1391 1395 1399 1404 1408 1412 1416 1420 1425 1429 1433 1438 1442 1446 1450 1453 1457
1395 1397 1394 1387 1378 1364 1353 1352 1352 1354 1353 1354 1354 1356 1358 1359 1359 1358 1360 1363 1365 1367 1370 1373 1376 1379 1383 1387 1391 1396 1400 1405 1409 1413 1417 1421 1426 1430 1435 1439 1443 1447 1451 1454
1387 1391 1392 1384 1376 1361 1346 1346 1347 1352 1350 1350 1352 1353 1355 1357 1356 1351 1356 1359 1361 1363 1366 1369 1372 1375 1379 1383 1387 1392 1396 1401 1405 1409 1414 1419 1423 1428 1432 1437 1441 1445 1448 1452
1382 1385 1384 1378 1370 1353 1346 1346 1346 1351 1345 1345 1347 1348 1350 1351 1349 1350 1353 1354 1356 1358 1361 1364 1367 1370 1374 1378 1383 1388 1392 1397 1402 1407 1412 1416 1421 1426 1430 1434 1438 1442 1446 1449
1372 1371 1372 1369 1367 1356 1346 1346 1345 1344 1344 1343 1343 1343 1344 1344 1344 1346 1348 1349 1350 1352 1355 1358 1362 1365 1370 1374 1378 1383 1388 1393 1398 1404 1409 1414 1418 1423 1428 1432 1436 1440 1443 1447
1365 1363 1359 1357 1351 1344 1345 1345 1344 1344 1343 1341 1340 1339 1339 1339 1339 1340 1341 1343 1345 1347 1350 1353 1356 1360 1364 1369 1373 1378 1383 1389 1394 1400 1405 1411 1416 1421 1425 1430 1433 1437 1441 1444
1361 1360 1358 1353 1346 1344 1343 1343 1342 1342 1341 1339 1338 1337 1336 1335 1334 1334 1335 1336 1338 1340 1343 1346 1349 1353 1358 1363 1369 1374 1379 1385 1391 1396 1402 1408 1413 1418 1423 1428 1432 1435 1438 1441
1356 1357 1353 1348 1343 1342 1339 1339 1339 1338 1337 1336 1334 1334 1333 1332 1330 1330 1330 1330 1331 1333 1336 1340 1343 1348 1352 1358 1363 1369 1375 1381 1387 1393 1399 1405 1411 1416 1420 1425 1429 1433 1436 1439
1349 1349 1347 1341 1339 1339 1335 1335 1336 1335 1333 1332 1330 1328 1327 1327 1326 1325 1324 1325 1326 1327 1330 1333 1338 1342 1347 1353 1359 1365 1372 1378 1383 1389 1396 1402 1407 1413 1418 1422 1427 1431 1435 1437